Hourly Data Report for April 03, 2017

CLYDE RIVER A
NUNAVUT

70°29'09.000" N
68°31'01.000" W
26.50 m
2400804
71090
YCY

Download Data

Hourly Data (April 2017)
Hourly Data Report for April 3, 2017
TIME
LST
Temp Definition
°C
Dew Point Definition
°C
Rel Hum Definition
%
Precip. Amount Definition
mm

Wind Dir Definition
10's deg

Wind Spd Definition
km/h
Visibility Definition
km
Stn Press Definition
kPa
Hmdx Definition


Wind Chill Definition


Weather Definition


00:00 -19.6 -22.9 75 0.0 25 11 16.1 100.87   -27 LegendNANA
01:00 -17.7 -21.5 73 0.0 24 5 16.1 100.87   -22 LegendNANA
02:00 -20.8 -23.9 77 0.0 LegendMM 4 16.1 100.91   -24 LegendNANA
03:00 -20.3 -23.5 76 0.0 28 8 16.1 100.91   -27 LegendNANA
04:00 -20.3 -23.0 80 0.0 26 8 16.1 100.92   -27 LegendNANA
05:00 -19.8 -22.7 78 0.0 26 8 16.1 100.93   -26 LegendNANA
06:00 -18.4 -21.5 77 0.0 26 9 16.1 100.94   -25 LegendNANA
07:00 -18.6 -21.7 77 0.0 31 5 16.1 100.92   -23 LegendNANA
08:00 -16.9 -20.3 75 0.0 34 9 16.1 100.91   -23 LegendNANA
09:00 -17.5 -20.2 80 0.0   0 16.1 100.90     LegendNANA
10:00 -16.7 -20.1 75 0.0   0 16.1 100.90     LegendNANA
11:00 -14.3 -18.1 73 0.0 14 5 16.1 100.91   -18 LegendNANA
12:00 -13.9 -17.8 73 0.0 LegendMM 4 16.1 100.90   -17 LegendNANA
13:00 -13.3 -17.2 73 0.0   0 16.1 100.92     LegendNANA
14:00 -12.8 -17.0 71 0.0 9 4 16.1 100.95   -15 LegendNANA
15:00 -12.5 -15.9 76 0.0 36 4 16.1 100.96   -15 LegendNANA
16:00 -12.3 -15.7 76 0.0 31 4 16.1 100.97   -15 LegendNANA
17:00 -14.3 -17.1 80 0.0 35 5 16.1 100.99   -18 LegendNANA
18:00 -14.6 -17.2 81 0.0 23 8 16.1 101.01   -20 LegendNANA
19:00 -13.1 -17.5 70 0.0 28 11 16.1 101.04   -19 LegendNANA
20:00 -13.6 -17.5 73 0.0 25 8 16.1 101.07   -19 LegendNANA
21:00 -15.9 -18.7 79 0.0 6 8 16.1 101.09   -21 LegendNANA
22:00 -14.3 -18.7 70 0.0 LegendMM 4 16.1 101.07   -17 LegendNANA
23:00 -15.2 -18.7 75 0.0 29 13 16.1 101.07   -23 LegendNANA

Notes on Data Quality.

Legend

  • E = Estimated
  • M = Missing
  • NA = Not Available*
  • [empty] = Indicates an unobserved value
Date modified: